Location: Bannatyne
(13.0833°N, 59.5333°W)
Time: 03:05:45
(UTC+00:00)

USA 234 - Pass Details

Date: 18 October 2019
Orbit: 1098 x 1109 km, 123.0° (Epoch: 20 November)

Event Time Altitude Azimuth Distance (km) Brightness Sun altitude
Exits shadow 23:12:14 22° 28° (NNE) 2,206 4.5 -23.7°
Maximum altitude 23:16:43 72° 308° (NW) 1,158 3.4 -24.8°
Drops below altitude 10° 23:23:14 10° 225° (SW) 2,962 6.1 -26.4°
Sets 23:25:43 0° 223° (SW) 3,919 6.8 -27.0°
